Location: Sommers-Bausch Observatory
(40.0037°N, 105.2635°W)
Time: 01:40:50
(UTC-06:00)

Amateur Radio Satellites - All Passes

Search period start: 23 April 2014 01:10
Search period end: 24 April 2014 01:10
Location: Sommers-Bausch Observatory, 40.0037°N, 105.2635°W

Satellite Date Start Highest point End Downlink Frequencies (MHz)
Time Altitude Azimuth
Sapphire 23 Apr 02:00:49 02:04:10 16° 317° (NW) 02:07:33 437.095 MHz 1200 baud AX-25 AFSK
AO-27 23 Apr 02:05:22 02:08:49 18° 92° (E) 02:12:15 436.795 MHz FM
Oscar 19 23 Apr 02:10:05 02:14:55 38° 98° (E) 02:19:44 437.125 CW, 437.150 USB
OPAL 23 Apr 02:14:02 02:18:40 38° 67° (ENE) 02:23:23 ?
ITAMSAT 1 23 Apr 02:14:40 02:18:35 22° 94° (E) 02:22:29 435.822 SSB
Oscar 16 23 Apr 02:18:55 02:23:58 50° 100° (E) 02:29:00 437.025 USB, Beacon 2401.1428
UOSAT-12 23 Apr 02:42:18 02:46:39 37° 245° (WSW) 02:50:56 437.025 FM, 437.400 FM
Uribyol 2 23 Apr 03:01:11 03:06:20 64° 102° (ESE) 03:11:29 436.500 FM
KITSAT 1 23 Apr 03:03:04 03:11:10 72° 302° (WNW) 03:19:19 435.175 FM
TMSAT-1 23 Apr 03:05:38 03:08:30 15° 90° (E) 03:11:22 436.925 FM
AO-Echo 23 Apr 03:20:33 03:25:19 77° 103° (ESE) 03:29:59 ?
AO-40 23 Apr 03:32:56 09:24:04 38° 181° (S) 14:52:48 Beacon 2401.320
AO-27 23 Apr 03:43:36 03:48:38 53° 288° (WNW) 03:53:39 436.795 MHz FM
AO-7 23 Apr 03:44:46 03:46:55 11° 87° (E) 03:49:03 29.400 - 29.500 MHz
Uosat F 23 Apr 03:45:25 03:46:35 11° 89° (E) 03:47:44 435.120 FM
Oscar 19 23 Apr 03:49:49 03:54:03 26° 294° (WNW) 03:58:17 437.125 CW, 437.150 USB
ITAMSAT 1 23 Apr 03:53:22 03:58:16 44° 290° (WNW) 04:03:08 435.822 SSB
JAS-1B 23 Apr 03:53:24 03:57:41 21° 95° (E) 04:02:10 435.800 - 435.900 CW/SSB
OPAL 23 Apr 03:53:32 03:57:38 25° 263° (W) 04:01:47 ?
Gurwin Techsat 1B 23 Apr 03:57:55 04:03:13 67° 102° (ESE) 04:08:29 435.225 FM
Oscar 16 23 Apr 03:59:11 04:02:57 21° 296° (WNW) 04:06:41 437.025 USB, Beacon 2401.1428
Uribyol 2 23 Apr 04:42:10 04:45:16 16° 298° (WNW) 04:48:22 436.500 FM
TMSAT-1 23 Apr 04:43:37 04:48:53 66° 286° (WNW) 04:54:06 436.925 FM
AO-Echo 23 Apr 05:01:52 05:03:24 12° 300° (WNW) 05:04:56 ?
KITSAT 1 23 Apr 05:02:26 05:08:07 20° 326° (NW) 05:13:50 435.175 FM
Uosat F 23 Apr 05:20:55 05:25:56 79° 285° (WNW) 05:30:55 435.120 FM
AO-7 23 Apr 05:32:45 05:41:04 69° 105° (ESE) 05:49:21 29.400 - 29.500 MHz
Gurwin Techsat 1B 23 Apr 05:39:26 05:42:37 16° 298° (WNW) 05:45:47 435.225 FM
JAS-1B 23 Apr 05:43:14 05:48:38 47° 290° (WNW) 05:54:22 435.800 - 435.900 CW/SSB
RS-15 23 Apr 06:03:57 06:14:51 55° 112° (ESE) 06:25:24 29.354 - 29.394 USB, Beacon 29.352 USB
MaSat-1 23 Apr 06:25:19 06:28:24 65° 65° (ENE) 06:32:05 437.345 MHz
STRAND 1 23 Apr 06:37:03 06:42:05 62° 73° (ENE) 06:47:07 ?
Hamsat 23 Apr 07:05:26 07:09:46 60° 100° (E) 07:14:05 145.90 MHz
Sapphire 23 Apr 07:22:39 07:24:07 11° 38° (NE) 07:25:34 437.095 MHz 1200 baud AX-25 AFSK
SO-67 23 Apr 07:23:10 07:25:03 14° 92° (E) 07:26:55 435.3500 MHz FM
AO-7 23 Apr 07:26:31 07:33:11 28° 304° (WNW) 07:39:53 29.400 - 29.500 MHz
JAS-2 23 Apr 08:04:51 08:10:23 71° 103° (ESE) 08:16:34 435.800 - 435.900 CW/SSB, 435.910 FM
PCSat 23 Apr 08:05:12 08:09:28 23° 48° (NE) 08:13:43 145.825 MHz
PANSAT 23 Apr 08:13:48 08:15:57 14° 176° (S) 08:18:07 not established
RS-15 23 Apr 08:16:46 08:27:25 46° 315° (NW) 08:37:52 29.354 - 29.394 USB, Beacon 29.352 USB
STRAND 1 23 Apr 08:18:50 08:21:40 15° 269° (W) 08:24:31 ?
Hamsat 23 Apr 08:43:17 08:45:14 13° 296° (WNW) 08:47:12 145.90 MHz
SO-67 23 Apr 08:55:10 08:58:17 30° 288° (WNW) 09:01:23 435.3500 MHz FM
KITSAT 1 23 Apr 09:02:55 09:07:28 16° 28° (NNE) 09:12:00 435.175 FM
Sapphire 23 Apr 09:03:21 09:08:43 59° 58° (ENE) 09:14:03 437.095 MHz 1200 baud AX-25 AFSK
HO-68 23 Apr 09:20:24 09:26:30 29° 95° (E) 09:32:33 435.675 MHz FM
Saudisat 1A 23 Apr 09:42:13 09:46:08 31° 114° (ESE) 09:50:04 436.775 MHz
PCSat 23 Apr 09:47:56 09:53:14 56° 246° (WSW) 09:58:30 145.825 MHz
JAS-2 23 Apr 09:51:45 09:55:02 16° 297° (WNW) 09:58:30 435.800 - 435.900 CW/SSB, 435.910 FM
PANSAT 23 Apr 09:53:39 09:55:28 13° 189° (S) 09:57:16 not established
Oscar 10/S400 23 Apr 09:58:25 11:32:57 60° 223° (SW) 18:46:18 145.825 - 145.975 CW/USB, Beacon 145.810 USB
Oscar 11 23 Apr 10:30:30 10:34:43 46° 99° (E) 10:38:54 145.825 FM, Beacon 2401.500 USB
FUNcube-1 23 Apr 10:34:13 10:36:52 16° 93° (E) 10:39:32 145.950 - 145.970 MHz USB
RS-15 23 Apr 10:36:07 10:43:35 20° 346° (NNW) 10:51:01 29.354 - 29.394 USB, Beacon 29.352 USB
Sapphire 23 Apr 10:48:01 10:51:38 18° 255° (WSW) 10:55:14 437.095 MHz 1200 baud AX-25 AFSK
KITSAT 1 23 Apr 10:57:10 11:05:03 52° 53° (NE) 11:12:51 435.175 FM
HO-68 23 Apr 11:07:31 11:14:26 53° 293° (WNW) 11:21:20 435.675 MHz FM
Saudisat 1A 23 Apr 11:21:48 11:25:43 29° 311° (NW) 11:29:38 436.775 MHz
Oscar 11 23 Apr 12:07:50 12:10:31 16° 295° (WNW) 12:13:13 145.825 FM, Beacon 2401.500 USB
FUNcube-1 23 Apr 12:09:23 12:13:27 43° 287° (WNW) 12:17:37 145.950 - 145.970 MHz USB
Uribyol 2 23 Apr 12:43:19 12:44:56 11° 59° (ENE) 12:46:34 436.500 FM
KITSAT 1 23 Apr 12:52:59 13:00:10 37° 252° (WSW) 13:07:19 435.175 FM
RS-15 23 Apr 12:53:19 13:01:35 23° 23° (NNE) 13:09:52 29.354 - 29.394 USB, Beacon 29.352 USB
AO-Echo 23 Apr 12:57:48 12:59:31 12° 60° (ENE) 13:01:14 ?
AO-27 23 Apr 13:22:46 13:27:01 26° 66° (ENE) 13:31:16 436.795 MHz FM
Oscar 19 23 Apr 13:26:17 13:31:14 51° 72° (ENE) 13:36:15 437.125 CW, 437.150 USB
ITAMSAT 1 23 Apr 13:31:59 13:36:30 31° 68° (ENE) 13:41:00 435.822 SSB
Oscar 16 23 Apr 13:35:12 13:40:18 68° 74° (ENE) 13:45:26 437.025 USB, Beacon 2401.1428
Gurwin Techsat 1B 23 Apr 13:42:15 13:44:29 13° 59° (ENE) 13:46:44 435.225 FM
ISS 23 Apr 13:42:45 13:45:56 44° 137° (SE) 13:49:08 145.800 FM
Uribyol 2 23 Apr 14:18:28 14:23:38 90° 76° (ENE) 14:28:49 436.500 FM
TMSAT-1 23 Apr 14:25:27 14:29:30 23° 65° (ENE) 14:33:33 436.925 FM
AO-Echo 23 Apr 14:32:22 14:37:35 88° 255° (WSW) 14:42:41 ?
JAS-1B 23 Apr 14:38:17 14:43:50 23° 64° (ENE) 14:48:46 435.800 - 435.900 CW/SSB
AO-7 23 Apr 14:42:02 14:47:25 20° 51° (NE) 14:52:47 29.400 - 29.500 MHz
SO-50 23 Apr 14:54:52 14:59:20 89° 297° (WNW) 15:03:52 436.795 FM
Uosat F 23 Apr 14:57:16 15:00:17 16° 62° (ENE) 15:03:17 435.120 FM
AO-27 23 Apr 15:01:34 15:06:21 37° 262° (W) 15:11:08 436.795 MHz FM
RS-15 23 Apr 15:05:49 15:16:42 63° 52° (NE) 15:27:48 29.354 - 29.394 USB, Beacon 29.352 USB
Oscar 19 23 Apr 15:07:23 15:10:52 18° 268° (W) 15:14:23 437.125 CW, 437.150 USB
ITAMSAT 1 23 Apr 15:11:23 15:15:55 31° 264° (W) 15:20:29 435.822 SSB
Oscar 16 23 Apr 15:17:35 15:20:07 14° 270° (W) 15:22:40 437.025 USB, Beacon 2401.1428
Gurwin Techsat 1B 23 Apr 15:18:23 15:23:42 85° 256° (WSW) 15:29:03 435.225 FM
ISS 23 Apr 15:19:55 15:22:46 25° 335° (NNW) 15:25:38 145.800 FM
OPAL 23 Apr 16:02:46 16:08:01 89° 106° (ESE) 16:13:14 ?
TMSAT-1 23 Apr 16:04:04 16:09:06 45° 261° (W) 16:14:11 436.925 FM
JAS-1B 23 Apr 16:26:14 16:34:07 65° 257° (WSW) 16:40:42 435.800 - 435.900 CW/SSB
AO-7 23 Apr 16:30:44 16:39:01 84° 71° (ENE) 16:47:20 29.400 - 29.500 MHz
Uosat F 23 Apr 16:33:35 16:38:33 62° 258° (WSW) 16:43:32 435.120 FM
SO-50 23 Apr 16:38:24 16:40:35 13° 321° (NW) 16:42:47 436.795 FM
UOSAT-12 23 Apr 16:52:20 16:56:53 78° 120° (ESE) 17:01:32 437.025 FM, 437.400 FM
ISS 23 Apr 16:59:05 17:00:24 12° 355° (N) 17:01:43 145.800 FM
RS-15 23 Apr 17:18:51 17:28:25 37° 253° (WSW) 17:38:16 29.354 - 29.394 USB, Beacon 29.352 USB
OPAL 23 Apr 17:44:01 17:46:08 13° 303° (WNW) 17:48:14 ?
Hamsat 23 Apr 17:58:25 18:02:19 38° 72° (ENE) 18:06:16 145.90 MHz
Saudisat 1A 23 Apr 18:09:39 18:13:13 23° 46° (NE) 18:16:43 436.775 MHz
JAS-2 23 Apr 18:18:06 18:22:36 26° 67° (ENE) 18:26:51 435.800 - 435.900 CW/SSB, 435.910 FM
AO-7 23 Apr 18:27:12 18:32:40 19° 268° (W) 18:38:11 29.400 - 29.500 MHz
UOSAT-12 23 Apr 18:34:49 18:37:37 16° 319° (NW) 18:40:26 437.025 FM, 437.400 FM
ISS 23 Apr 18:36:11 18:38:14 15° 15° (NNE) 18:40:17 145.800 FM
STRAND 1 23 Apr 18:49:09 18:53:02 22° 94° (E) 18:56:54 ?
SO-67 23 Apr 19:27:38 19:31:06 74° 77° (ENE) 19:34:37 435.3500 MHz FM
Hamsat 23 Apr 19:35:42 19:38:27 17° 268° (W) 19:41:15 145.90 MHz
Saudisat 1A 23 Apr 19:48:50 19:52:57 40° 244° (WSW) 19:57:01 436.775 MHz
HO-68 23 Apr 19:49:34 19:54:42 22° 57° (ENE) 19:59:51 435.675 MHz FM
JAS-2 23 Apr 20:02:17 20:07:34 38° 261° (W) 20:12:30 435.800 - 435.900 CW/SSB, 435.910 FM
ISS 23 Apr 20:12:14 20:15:32 55° 34° (NE) 20:18:50 145.800 FM
STRAND 1 23 Apr 20:27:35 20:32:23 42° 290° (WNW) 20:37:10 ?
MaSat-1 23 Apr 20:28:08 20:30:44 32° 112° (ESE) 20:33:06 437.345 MHz
Oscar 11 23 Apr 21:25:09 21:29:00 33° 70° (ENE) 21:32:53 145.825 FM, Beacon 2401.500 USB
FUNcube-1 23 Apr 21:31:53 21:33:28 12° 64° (ENE) 21:35:03 145.950 - 145.970 MHz USB
HO-68 23 Apr 21:34:33 21:41:40 75° 255° (WSW) 21:48:51 435.675 MHz FM
SO-50 23 Apr 21:48:52 21:50:17 11° 37° (NE) 21:51:43 436.795 FM
ISS 23 Apr 21:49:49 21:51:57 16° 230° (SW) 21:54:04 145.800 FM
PCSat 23 Apr 22:47:14 22:51:09 21° 106° (ESE) 22:55:05 145.825 MHz
Oscar 11 23 Apr 23:02:03 23:05:15 20° 266° (W) 23:08:29 145.825 FM, Beacon 2401.500 USB
FUNcube-1 23 Apr 23:05:18 23:09:24 57° 260° (W) 23:13:31 145.950 - 145.970 MHz USB
SO-50 23 Apr 23:27:05 23:31:44 67° 56° (NE) 23:36:25 436.795 FM
HO-68 23 Apr 23:28:37 23:30:27 11° 273° (W) 23:32:18 435.675 MHz FM
Sapphire 23 Apr 23:44:20 23:49:39 63° 115° (ESE) 23:55:01 437.095 MHz 1200 baud AX-25 AFSK
PCSat 24 Apr 00:28:52 00:34:08 53° 303° (WNW) 00:39:27 145.825 MHz
